BADGR41 KNKX-KNKX

Flight info

Callsign BADGR41
Flight time 0h 32m
Altitude 16500
Route KNKX KNNC KNKX
Aircraft F22/L-V/N

Departure

Time 2026-04-15 00:36
Airport Miramar Marine Corps Air Station - Mitscher Field (KNKX)

Arrival

Time 2026-04-15 01:08
Airport Miramar Marine Corps Air Station - Mitscher Field (KNKX)
Time Latitude Longitude Altitude Speed Heading
2026-04-15 00:28 32.87320 -117.14380 461 ft 0 kts 73°
2026-04-15 00:29 32.87323 -117.14363 462 ft 6 kts 87°
2026-04-15 00:30 32.87285 -117.14330 462 ft 9 kts 164°
2026-04-15 00:30 32.87209 -117.14304 461 ft 14 kts 163°
2026-04-15 00:30 32.87140 -117.14354 460 ft 15 kts 256°
2026-04-15 00:30 32.87129 -117.14479 461 ft 5 kts 271°
2026-04-15 00:31 32.87124 -117.14528 461 ft 8 kts 238°
2026-04-15 00:31 32.87052 -117.14567 459 ft 8 kts 196°
2026-04-15 00:31 32.87033 -117.14570 459 ft 5 kts 168°
2026-04-15 00:31 32.87034 -117.14500 459 ft 14 kts 75°
2026-04-15 00:32 32.87066 -117.14358 459 ft 21 kts 74°
2026-04-15 00:32 32.87107 -117.14173 460 ft 24 kts 76°
2026-04-15 00:32 32.87152 -117.13967 460 ft 28 kts 75°
2026-04-15 00:32 32.87205 -117.13725 456 ft 32 kts 75°
2026-04-15 00:33 32.87265 -117.13452 453 ft 36 kts 75°
2026-04-15 00:33 32.87328 -117.13166 455 ft 35 kts 76°
2026-04-15 00:33 32.87376 -117.12942 458 ft 21 kts 75°
2026-04-15 00:33 32.87395 -117.12799 462 ft 16 kts 108°
2026-04-15 00:34 32.87369 -117.12765 463 ft 0 kts 154°
2026-04-15 00:34 32.87368 -117.12765 463 ft 0 kts 154°
2026-04-15 00:35 32.87339 -117.12752 463 ft 16 kts 164°
2026-04-15 00:35 32.87251 -117.12887 460 ft 67 kts 256°
2026-04-15 00:35 32.86856 -117.14759 766 ft 418 kts 258°
2026-04-15 00:36 32.85892 -117.19318 2130 ft 635 kts 256°
2026-04-15 00:36 32.85221 -117.24246 4620 ft 544 kts 275°
2026-04-15 00:36 32.85709 -117.28639 8058 ft 559 kts 282°
2026-04-15 00:36 32.86784 -117.33231 9168 ft 589 kts 287°
2026-04-15 00:37 32.87538 -117.38051 9534 ft 598 kts 278°
2026-04-15 00:37 32.87933 -117.43041 9712 ft 621 kts 277°
2026-04-15 00:37 32.88453 -117.48645 14043 ft 768 kts 276°
2026-04-15 00:37 32.89035 -117.55579 14749 ft 901 kts 277°
2026-04-15 00:38 32.89778 -117.63298 16166 ft 970 kts 278°
2026-04-15 00:38 32.91310 -117.71308 17887 ft 1022 kts 284°
2026-04-15 00:38 32.92965 -117.79745 17923 ft 1069 kts 282°
2026-04-15 00:38 32.94054 -117.87849 17253 ft 874 kts 277°
2026-04-15 00:39 32.94718 -117.94331 16077 ft 719 kts 278°
2026-04-15 00:39 32.97664 -117.96826 13501 ft 578 kts 43°
2026-04-15 00:39 32.97395 -117.92944 11692 ft 522 kts 160°
2026-04-15 00:39 32.95176 -117.94717 10863 ft 438 kts 276°
2026-04-15 00:40 32.95435 -117.98438 9337 ft 463 kts 276°
2026-04-15 00:40 32.95694 -118.02310 8192 ft 471 kts 276°
2026-04-15 00:40 32.96011 -118.06196 7394 ft 477 kts 277°
2026-04-15 00:40 32.96542 -118.11308 6561 ft 760 kts 277°
2026-04-15 00:41 32.97256 -118.17748 5833 ft 751 kts 278°
2026-04-15 00:41 32.97954 -118.23511 5285 ft 659 kts 278°
2026-04-15 00:41 32.98573 -118.28699 4703 ft 617 kts 279°
2026-04-15 00:41 32.99198 -118.33527 3947 ft 566 kts 279°
2026-04-15 00:42 32.99786 -118.38040 3222 ft 540 kts 279°
2026-04-15 00:42 33.00340 -118.42371 2621 ft 517 kts 279°
2026-04-15 00:42 33.00861 -118.46495 2129 ft 490 kts 279°
2026-04-15 00:42 33.01360 -118.50371 1591 ft 453 kts 279°
2026-04-15 00:43 33.01817 -118.53926 1162 ft 416 kts 279°
2026-04-15 00:43 33.02204 -118.57199 1073 ft 385 kts 277°
2026-04-15 00:43 33.02064 -118.60196 1162 ft 352 kts 234°
2026-04-15 00:43 33.00948 -118.59261 1188 ft 300 kts 75°
2026-04-15 00:44 33.01705 -118.56593 1219 ft 379 kts 67°
2026-04-15 00:44 33.02806 -118.53518 1071 ft 417 kts 62°
2026-04-15 00:44 33.04531 -118.51192 1275 ft 338 kts 356°
2026-04-15 00:44 33.05394 -118.52698 1556 ft 235 kts 226°
2026-04-15 00:45 33.04373 -118.54007 1081 ft 184 kts 232°
2026-04-15 00:45 33.03697 -118.55138 740 ft 180 kts 247°
2026-04-15 00:45 33.02917 -118.57681 832 ft 524 kts 250°
2026-04-15 00:45 33.02596 -118.62096 4333 ft 516 kts 315°
2026-04-15 00:46 33.05651 -118.62319 6351 ft 455 kts 34°
2026-04-15 00:46 33.07192 -118.59256 6351 ft 424 kts 66°
2026-04-15 00:46 33.08223 -118.56116 6092 ft 391 kts 66°
2026-04-15 00:46 33.09257 -118.53203 5359 ft 372 kts 64°
2026-04-15 00:47 33.09103 -118.50611 3671 ft 353 kts 155°
2026-04-15 00:47 33.06745 -118.50735 2648 ft 342 kts 190°
2026-04-15 00:47 33.04436 -118.51205 1965 ft 311 kts 220°
2026-04-15 00:47 33.03970 -118.53101 1573 ft 212 kts 264°
2026-04-15 00:48 33.03730 -118.54609 1162 ft 170 kts 252°
2026-04-15 00:48 33.03330 -118.55850 768 ft 153 kts 248°
2026-04-15 00:48 33.02942 -118.56961 366 ft 141 kts 247°
2026-04-15 00:48 33.02565 -118.58023 153 ft 125 kts 248°
2026-04-15 00:49 33.02145 -118.59230 555 ft 274 kts 248°
2026-04-15 00:49 33.01619 -118.62548 2760 ft 499 kts 302°
2026-04-15 00:49 33.04901 -118.63249 3553 ft 559 kts 30°
2026-04-15 00:49 33.07602 -118.60193 3856 ft 509 kts 44°
2026-04-15 00:50 33.09823 -118.57260 4259 ft 446 kts 51°
2026-04-15 00:50 33.10880 -118.54050 4087 ft 401 kts 83°
2026-04-15 00:50 33.10208 -118.51112 3528 ft 365 kts 143°
2026-04-15 00:50 33.07940 -118.50613 3129 ft 331 kts 198°
2026-04-15 00:51 33.05808 -118.51444 2464 ft 318 kts 198°
2026-04-15 00:51 33.04147 -118.52713 2062 ft 256 kts 253°
2026-04-15 00:51 33.03673 -118.54531 1441 ft 199 kts 255°
2026-04-15 00:51 33.03296 -118.55925 875 ft 158 kts 250°
2026-04-15 00:52 33.02913 -118.57052 358 ft 144 kts 246°
2026-04-15 00:52 33.02539 -118.58097 150 ft 129 kts 245°
2026-04-15 00:52 33.01978 -118.59634 358 ft 362 kts 248°
2026-04-15 00:52 33.00773 -118.63178 5574 ft 519 kts 249°
2026-04-15 00:53 32.99337 -118.67678 14610 ft 673 kts 250°
2026-04-15 00:53 32.97240 -118.73703 15928 ft 874 kts 236°
2026-04-15 00:53 32.91825 -118.76963 14702 ft 967 kts 168°
2026-04-15 00:53 32.86980 -118.71770 15116 ft 975 kts 105°
2026-04-15 00:54 32.86004 -118.63967 16489 ft 914 kts 90°
2026-04-15 00:54 32.86067 -118.56714 16266 ft 843 kts 85°
2026-04-15 00:54 32.88977 -118.51569 15664 ft 777 kts 33°
2026-04-15 00:54 32.91958 -118.49188 15467 ft 783 kts 30°
2026-04-15 00:55 32.96446 -118.45512 15375 ft 794 kts 54°
2026-04-15 00:55 32.98852 -118.39492 15301 ft 819 kts 78°
2026-04-15 00:55 32.98789 -118.32659 14993 ft 843 kts 97°
2026-04-15 00:55 32.97842 -118.23303 15612 ft 912 kts 94°
2026-04-15 00:56 32.97453 -118.18033 15594 ft 974 kts 94°
2026-04-15 00:56 32.96860 -118.09730 15517 ft 1028 kts 94°
2026-04-15 00:56 32.96251 -118.01154 15896 ft 1055 kts 94°
2026-04-15 00:56 32.95225 -117.92780 14928 ft 950 kts 107°
2026-04-15 00:57 32.93513 -117.86013 10520 ft 784 kts 104°
2026-04-15 00:57 32.92326 -117.80111 7223 ft 686 kts 99°
2026-04-15 00:57 32.91270 -117.74792 5399 ft 637 kts 89°
2026-04-15 00:57 32.92024 -117.69865 5223 ft 613 kts 96°
2026-04-15 00:58 32.91356 -117.64105 3144 ft 811 kts 97°
2026-04-15 00:58 32.90373 -117.57096 2837 ft 884 kts 99°
2026-04-15 00:58 32.89382 -117.50383 7396 ft 580 kts 100°
2026-04-15 00:58 32.89907 -117.50237 22876 ft 492 kts 310°
2026-04-15 00:59 32.91327 -117.52184 15524 ft 259 kts 126°
2026-04-15 00:59 32.89472 -117.47958 9808 ft 623 kts 111°
2026-04-15 00:59 32.88096 -117.43393 8603 ft 565 kts 104°
2026-04-15 00:59 32.87111 -117.39099 8652 ft 512 kts 102°
2026-04-15 01:00 32.86126 -117.35185 8455 ft 476 kts 108°
2026-04-15 01:00 32.84962 -117.31562 7517 ft 465 kts 109°
2026-04-15 01:00 32.83903 -117.28016 7054 ft 447 kts 103°
2026-04-15 01:00 32.83395 -117.24448 6698 ft 430 kts 98°
2026-04-15 01:01 32.83112 -117.20940 5769 ft 425 kts 85°
2026-04-15 01:01 32.83671 -117.17476 4781 ft 423 kts 76°
2026-04-15 01:01 32.84382 -117.14165 4606 ft 402 kts 75°
2026-04-15 01:01 32.85136 -117.11017 4335 ft 387 kts 73°
2026-04-15 01:02 32.85866 -117.08097 4104 ft 364 kts 72°
2026-04-15 01:02 32.86603 -117.05282 3502 ft 349 kts 72°
2026-04-15 01:02 32.87887 -117.03239 2917 ft 302 kts 355°
2026-04-15 01:02 32.89125 -117.04566 2456 ft 220 kts 266°
2026-04-15 01:03 32.88728 -117.06124 1966 ft 184 kts 255°
2026-04-15 01:03 32.88403 -117.07575 1695 ft 182 kts 257°
2026-04-15 01:03 32.88081 -117.09094 1403 ft 194 kts 257°
2026-04-15 01:03 32.87744 -117.10673 1093 ft 200 kts 255°
2026-04-15 01:04 32.87406 -117.12236 697 ft 180 kts 252°
2026-04-15 01:04 32.87139 -117.13423 465 ft 119 kts 254°
2026-04-15 01:04 32.86888 -117.14539 664 ft 244 kts 255°
2026-04-15 01:04 32.86133 -117.17935 1468 ft 550 kts 256°
2026-04-15 01:05 32.84376 -117.22208 2693 ft 626 kts 211°
2026-04-15 01:05 32.80559 -117.20783 3042 ft 653 kts 115°
2026-04-15 01:05 32.81823 -117.16287 3374 ft 586 kts 45°
2026-04-15 01:05 32.83604 -117.12347 3559 ft 506 kts 69°
2026-04-15 01:06 32.84835 -117.08761 3928 ft 438 kts 63°
2026-04-15 01:06 32.86101 -117.05628 4081 ft 406 kts 61°
2026-04-15 01:06 32.87387 -117.02733 4260 ft 387 kts 59°
2026-04-15 01:06 32.89296 -117.01908 3215 ft 348 kts 300°
2026-04-15 01:07 32.89037 -117.04571 2609 ft 330 kts 256°
2026-04-15 01:07 32.88499 -117.07138 2059 ft 313 kts 255°
2026-04-15 01:07 32.88004 -117.09367 1534 ft 253 kts 257°
2026-04-15 01:07 32.87637 -117.11146 1042 ft 188 kts 254°
2026-04-15 01:08 32.87350 -117.12458 629 ft 146 kts 253°
2026-04-15 01:08 32.87130 -117.13444 457 ft 98 kts 254°
2026-04-15 01:08 32.87019 -117.13958 458 ft 42 kts 255°
2026-04-15 01:08 32.87033 -117.14181 458 ft 26 kts 290°
2026-04-15 01:09 32.87047 -117.14226 458 ft 3 kts 290°
2026-04-15 01:09 32.87066 -117.14287 458 ft 8 kts 290°
2026-04-15 01:09 32.87071 -117.14328 459 ft 2 kts 267°
2026-04-15 01:09 32.87071 -117.14329 459 ft 0 kts 266°
2026-04-15 01:12 32.87051 -117.14428 459 ft 22 kts 256°
2026-04-15 01:12 32.87032 -117.14560 459 ft 12 kts 315°
2026-04-15 01:13 32.87114 -117.14538 461 ft 13 kts 42°
2026-04-15 01:13 32.87132 -117.14423 461 ft 17 kts 85°
2026-04-15 01:13 32.87160 -117.14271 460 ft 21 kts 74°
2026-04-15 01:13 32.87203 -117.14094 461 ft 24 kts 75°
2026-04-15 01:14 32.87249 -117.13886 459 ft 28 kts 75°
2026-04-15 01:14 32.87280 -117.13747 458 ft 14 kts 74°
2026-04-15 01:14 32.87341 -117.13721 457 ft 13 kts 344°
2026-04-15 01:14 32.87382 -117.13707 457 ft 0 kts 73°
2026-04-15 01:15 32.87383 -117.13705 457 ft 0 kts 73°